Flag for U.S.A. Weather past 2 weeks in Simi Valley, California, U.S.A.

Now
88 °F

Sunny.


Feels Like: 85 °F
Forecast: 59 / 87 °F
Wind: 10 mph from South

Location: Van Nuys Airport

Current Time: Sep 30, 2014 at 5:11:37 PM

Latest Report: Sep 30, 2014 at 3:51 PM


Visibility: 10 mi

Pressure: 29.72 "Hg

Humidity: 22%

Dew point: 45 °F

Location of Simi ValleyLocation

Historic Weather in Simi Valley — Graph

°F

Simi Valley temperature yesterday

Maximum temperature yesterday: 83 °F (at 3:51 PM)
Minimum temperature yesterday: 58 °F (at 6:51 AM)
Average temperature yesterday: 70 °F

Past Weeks' High & Low Weather Summary

 TemperatureHumidityPressure
High106 °F (Sep 16, 1:51 PM)85% (Sep 20, 5:51 AM)29.99 "Hg (Sep 20, 5:51 AM)
Low58 °F (Sep 29, 6:51 AM)7% (Sep 24, 2:51 PM)29.64 "Hg (Sep 16, 4:51 PM)
Average76 °F51%29.85 "Hg
* Reported Sep 15 3:51 PM — Sep 30 3:51 PM, Simi Valley, Weather by CustomWeather, © 2014

Note: Actual official high and low records may vary slightly from our data, if they occured in-between our weather recording intervals... More about our weather records

Advertising

Simi Valley weather history for previous 24 hours

 ConditionsComfort  
Time TempWeatherWind HumidityBarometerVisibility
3:51 PM
Sep 30
88 °FSunny.10 mph22%29.72 "Hg10 mi
2:51 PM89 °FSunny.10 mph23%29.74 "Hg10 mi
1:51 PM88 °FSunny.5 mph18%29.76 "Hg10 mi
12:51 PM88 °FSunny.3 mph18%29.80 "Hg10 mi
11:51 AM84 °FSunny.No wind22%29.83 "Hg10 mi
10:51 AM80 °FSunny.No wind30%29.85 "Hg10 mi
9:51 AM75 °FSunny.No wind42%29.86 "Hg10 mi
8:51 AM68 °FSunny.No wind55%29.86 "Hg10 mi
7:51 AM62 °FSunny.No wind65%29.85 "Hg10 mi
6:51 AM58 °FClear.3 mph72%29.85 "Hg10 mi
5:51 AM60 °FClear.No wind67%29.84 "Hg10 mi
4:51 AM62 °FClear.No wind65%29.83 "Hg10 mi
3:51 AM62 °FClear.No wind65%29.84 "Hg10 mi
2:51 AM64 °FClear.No wind65%29.85 "Hg10 mi
1:51 AM65 °FClear.No wind61%29.85 "Hg10 mi
12:51 AM66 °FClear.No wind52%29.85 "Hg10 mi
11:51 PM
Sep 29
68 °FClear.3 mph49%29.85 "Hg10 mi
10:51 PM69 °FClear.3 mph49%29.85 "Hg10 mi
9:51 PM70 °FClear.No wind47%29.86 "Hg10 mi
8:51 PM71 °FClear.3 mph45%29.86 "Hg10 mi
7:51 PM73 °FClear.5 mph41%29.84 "Hg10 mi
6:51 PM75 °FSunny.6 mph42%29.83 "Hg10 mi
5:51 PM79 °FSunny.7 mph38%29.83 "Hg10 mi
Weather by CustomWeather, © 2014

See weather overviewHow to use our weather pages